Starlink 32502

operational
NORAD ID: 62116 Int'l Des: 2024-222 Owner: SPXS Country: US Constellation: starlink
LEOCIRCULAR

About Starlink 32502

Description loading...

Live Position

Loading 3D Globe...

Upcoming Passes

Altitude History

Altitude vs Time

uPlot chart will show altitude changes over time

Two-Line Element Set

1 62116U 24222C 26035.18529592 .00039000 00000-0 14192-2 0 9996
2 62116 43.0015 325.5124 0001279 298.0085 62.0637 15.27581854 67681
Epoch: Feb 4, 2026 • Age: 26 hours

Current Status

Altitude 484.4 km
Velocity 7.62 km/s
Sub-Earth Point -8.38°S, 82.86°W
Launch Date Nov 27, 2024
Age 1.1 years
Type internet

Technical Details

Classification Payload
Mass 730.00 kg
Dry Mass 700.00 kg
Total Mass 730.00 kg
Length 0.30 m
Diameter 4.10 m
Span 29.00 m
Shape Box + pan
Manufacturer SPXS
Bus Type Starlink V2M
Phase Status In Orbit
Owner/State SPXS/US

Large Constellations

Loading constellations...